Location: Newark
(46.9000°N, 28.3500°E)
Time: 10:50:03
(UTC+00:00)

Vanguard 1 Rocket - Visible Passes

Search period start: 21 August 2019 00:00
Search period end: 31 August 2019 00:00
Orbit: 652 x 4224 km, 34.3° (Epoch: 20 August)

Date Brightness Start Highest point End Pass type
(mag) Time Alt. Az. Time Alt. Az. Time Alt. Az.
21 Aug 8.6 01:45:16 16° SSW 01:47:59 24° SSE 01:53:36 10° ESE visible
22 Aug 8.9 00:38:07 16° SSE 00:38:07 16° SSE 00:40:55 10° ESE visible
23 Aug 8.5 01:48:15 17° SSW 01:50:42 24° S 01:56:06 10° ESE visible
24 Aug 8.8 00:41:07 17° SSE 00:41:07 17° SSE 00:43:49 10° ESE visible
25 Aug 8.4 01:51:18 17° SSW 01:53:27 23° S 01:58:30 10° SE visible
26 Aug 8.8 00:44:13 17° SSE 00:44:13 17° SSE 00:46:35 10° SE visible
27 Aug 8.4 01:54:26 17° SSW 01:56:15 20° S 02:00:46 10° SE visible
28 Aug 8.8 00:47:23 16° SSE 00:47:23 16° SSE 00:49:13 10° SE visible
29 Aug 8.5 01:57:40 16° SSW 01:59:02 17° S 02:02:51 10° SE visible
30 Aug 9.0 00:50:41 13° SSE 00:50:41 13° SSE 00:51:44 10° SE visible
